Hourly Data Report for September 30, 2022

TORONTO CITY
ONTARIO
Current Station Operator: ECCC - MSC

43°40'00.000" N
79°24'00.000" W
112.50 m
6158355
71508
XTO

Download Data

Hourly Data (September 2022)
Hourly Data Report for September 30, 2022
TIME
LST
Temp Definition
°C
Dew Point Definition
°C
Rel Hum Definition
%
Precip. Amount Definition
mm

Wind Dir Definition
10's deg

Wind Spd Definition
km/h
Visibility Definition
km
Stn Press Definition
kPa
Hmdx Definition


Wind Chill Definition


Weather Definition


00:00 9.6 6.8 82 0.0       101.55     LegendNANA
01:00 9.3 6.5 83 0.0       101.54     LegendNANA
02:00 8.9 6.2 83 0.0       101.54     LegendNANA
03:00 8.9 6.4 85 0.0       101.51     LegendNANA
04:00 9.0 6.1 82 0.0       101.51     LegendNANA
05:00 8.6 6.0 84 0.0       101.51     LegendNANA
06:00 8.1 5.7 84 0.0       101.51     LegendNANA
07:00 8.2 5.6 83 0.0       101.54     LegendNANA
08:00 11.3 5.2 66 0.0       101.54     LegendNANA
09:00 13.1 5.1 58 0.0       101.52     LegendNANA
10:00 14.5 5.9 56 0.0       101.52     LegendNANA
11:00 14.3 5.8 57 0.0       101.49     LegendNANA
12:00 15.1 7.6 61 0.0       101.40     LegendNANA
13:00 16.6 7.0 53 0.0       101.34     LegendNANA
14:00 16.0 -0.7 32 0.0       101.23     LegendNANA
15:00 15.4 4.0 46 0.0       101.14     LegendNANA
16:00 15.1 2.9 44 0.0       101.07     LegendNANA
17:00 14.7 0.2 37 0.0       101.02     LegendNANA
18:00 13.9 0.7 40 0.0       101.00     LegendNANA
19:00 13.3 5.6 60 0.0       100.99     LegendNANA
20:00 12.7 6.0 64 0.0       100.98     LegendNANA
21:00 13.2 5.9 61 0.0       100.96     LegendNANA
22:00 11.7 6.3 70 0.0       100.92     LegendNANA
23:00 11.9 4.9 62 0.0       100.92     LegendNANA

Notes on Data Quality.

Legend

  • E = Estimated
  • M = Missing
  • NA = Not Available*
  • [empty] = Indicates an unobserved value
Date modified: